Theta_e
308 307 306 306 306 307 307 308 308 308 309 309 308 307 307 307 307 314 314 316 315 302 305 310 311 306 305 304 293 300 296 296 289 287 283 284 282 285 286 291 286 282 279 281 284 280 276 298 296 287 292 298 298 296
307 306 306 305 306 306 307 307 307 308 308 310 308 307 308 307 308 310 313 317 318 311 307 313 311 311 309 309 305 303 298 302 299 290 287 288 286 288 285 281 294 285 288 285 286 284 294 298 296 299 299 297 296 296
306 305 305 305 306 306 306 306 306 307 308 308 309 307 307 308 308 309 314 315 316 304 305 306 306 312 315 313 314 301 301 307 304 305 294 293 283 290 281 285 286 294 298 287 289 295 297 297 301 301 300 298 298 300
303 304 305 305 305 306 305 305 305 306 307 307 309 305 305 307 308 309 314 315 311 302 289 301 311 309 313 314 314 313 310 310 308 299 291 289 284 296 286 289 287 292 296 293 289 296 297 299 299 298 298 300 300 299
302 302 303 304 305 306 305 304 304 305 304 304 304 305 305 305 307 312 315 314 314 308 292 294 308 310 312 312 311 312 310 307 299 292 288 287 287 290 287 287 286 297 293 288 286 296 296 296 298 300 300 299 300 299
302 302 302 302 303 304 305 304 304 302 303 304 305 306 306 305 306 313 307 313 310 314 298 289 305 305 308 309 308 307 308 306 303 293 288 295 303 293 286 284 296 300 301 300 295 301 300 299 299 301 299 299 299 294
301 301 301 302 302 302 303 304 303 302 302 304 305 306 306 306 310 306 303 306 305 310 294 290 294 301 303 306 304 305 307 303 302 295 292 289 293 297 287 287 296 300 300 300 301 298 295 297 296 299 297 296 295 293
301 301 301 301 302 302 302 303 304 304 303 303 304 305 306 305 305 307 309 308 306 307 299 290 291 291 303 292 292 299 293 297 300 296 294 289 292 288 286 295 299 301 301 299 298 299 298 298 298 297 296 291 288 287
300 300 301 301 301 301 301 302 303 304 304 304 305 306 309 306 300 306 305 305 312 305 292 287 287 286 299 293 292 291 295 288 295 288 290 293 288 288 293 296 298 298 297 296 297 298 298 297 297 292 289 288 287 286
300 300 300 300 301 302 302 302 303 304 304 304 306 302 293 297 303 304 306 297 294 294 296 289 294 289 295 289 288 288 287 287 286 288 292 286 287 293 296 298 298 298 298 299 295 294 296 291 288 287 287 288 287 286
301 301 301 301 301 301 302 302 303 303 304 300 293 290 297 302 302 296 290 291 291 288 292 292 291 290 294 287 287 288 286 286 284 284 286 284 285 290 295 296 298 300 300 299 296 293 291 289 287 287 287 286 285 284
301 301 301 301 301 301 302 302 303 301 298 298 297 299 297 293 289 289 287 287 287 287 288 288 289 292 290 295 287 286 286 285 282 288 285 282 285 293 294 295 296 297 294 292 292 290 290 290 289 286 285 284 285 284
300 300 301 301 301 301 301 301 300 300 300 296 292 287 290 285 284 284 283 284 285 285 287 286 286 286 288 289 285 285 284 283 286 284 281 282 292 294 294 289 289 289 288 289 289 289 288 288 287 284 283 284 280 284
299 300 300 300 301 300 299 300 301 300 295 288 286 283 284 283 284 283 284 284 285 285 285 286 285 285 285 285 285 283 284 284 281 278 276 286 291 293 293 290 288 286 284 285 285 286 284 284 283 282 280 280 277 281
299 300 300 299 299 299 299 299 299 298 292 286 286 282 283 284 285 285 285 285 286 288 286 285 285 286 284 283 284 282 280 279 281 281 283 286 288 289 287 287 285 283 282 283 285 284 281 280 281 283 283 283 283 279
298 299 299 299 299 299 299 299 295 295 286 287 285 283 284 285 284 285 285 285 288 286 287 286 284 284 282 283 281 281 280 279 282 284 286 286 286 286 286 286 286 286 285 285 285 285 284 281 279 284 283 282 281 282
298 297 299 298 298 298 299 295 291 287 285 285 284 286 286 285 285 285 286 286 290 286 284 285 282 279 282 280 280 283 281 284 284 284 284 286 286 286 286 286 284 285 286 285 285 285 284 284 281 281 282 285 284 284
296 298 299 299 299 298 295 294 288 285 282 285 284 285 285 285 285 285 286 287 286 284 284 282 284 280 279 278 279 283 283 284 284 284 284 286 286 286 287 285 287 285 284 284 282 284 284 280 283 283 284 285 284 283
297 298 298 298 296 292 287 287 289 283 283 285 284 285 284 285 285 286 286 286 287 286 285 282 280 279 279 281 283 283 283 283 283 284 285 286 286 285 285 285 285 284 284 284 284 283 283 285 284 284 284 283 283 283
296 296 296 297 296 287 285 283 288 282 283 283 285 284 283 283 284 285 285 286 286 285 281 279 280 282 282 283 284 284 284 284 283 282 282 284 284 285 284 284 283 284 284 285 284 281 282 283 283 283 282 280 278 279
295 293 294 294 290 291 285 285 285 285 282 283 284 284 281 283 283 284 285 285 285 280 278 280 280 283 286 285 284 284 285 285 283 282 281 281 282 282 282 283 284 282 281 280 279 281 278 281 284 283 279 281 283 282
291 293 287 289 285 285 283 284 283 282 283 280 283 282 281 280 280 281 283 281 280 280 283 281 283 283 284 285 285 286 286 285 285 283 281 280 280 280 281 281 280 278 280 280 282 283 282 283 280 278 282 285 286 285
291 289 286 285 283 283 281 284 283 283 278 281 283 280 279 280 281 282 280 281 280 284 284 285 286 286 285 285 285 285 285 284 281 281 282 281 281 280 280 282 280 277 280 282 281 280 282 279 278 275 277 284 285 285
290 285 284 283 283 280 283 281 281 279 282 280 279 277 279 280 277 277 273 275 280 283 283 284 283 282 282 283 282 282 282 283 282 282 283 282 281 281 282 282 281 281 281 282 282 282 284 284 279 283 283 283 283 280
282 280 281 279 280 277 278 278 279 275 271 274 272 273 272 274 272 269 271 277 280 279 282 281 283 283 281 281 280 280 280 279 278 277 279 278 277 276 277 278 278 278 278 277 278 277 278 279 280 280 281 282 280 276
276 279 278 279 278 279 278 273 276 274 273 274 275 276 274 271 268 268 277 279 279 279 279 279 277 279 278 279 277 277 278 278 276 274 276 277 277 276 274 273 273 273 274 276 275 274 273 274 275 276 278 280 279 279
276 278 281 282 282 281 279 280 280 278 275 273 274 272 270 266 266 275 278 278 278 279 281 280 279 278 277 277 277 279 276 275 273 275 276 278 275 274 272 270 270 271 273 273 272 272 272 273 274 274 275 277 278 279
280 280 276 279 279 279 275 275 273 272 274 278 275 269 268 268 272 276 276 278 278 280 280 278 277 276 277 275 277 272 269 269 270 270 273 276 273 270 269 269 270 271 269 271 270 271 271 272 272 274 275 276 277 274
279 281 279 273 274 275 274 273 274 278 280 277 272 271 273 274 273 275 275 276 277 276 273 272 272 272 271 270 273 271 265 264 264 260 258 258 263 264 268 268 267 266 267 268 269 271 271 272 273 273 274 273 273 269
277 281 276 273 271 274 279 280 281 282 279 280 278 275 273 272 272 272 273 271 270 270 271 272 270 264 263 262 262 264 269 264 260 260 258 258 263 265 266 265 265 265 266 266 265 266 269 271 272 274 271 269 269 266
280 281 279 279 278 280 280 281 281 281 281 282 280 276 269 268 268 269 269 271 270 265 265 263 263 263 260 261 263 260 260 260 263 265 262 261 261 258 261 263 263 264 265 263 263 264 265 268 270 268 266 265 265 263
280 278 277 275 277 279 281 279 279 279 274 278 277 275 272 268 263 264 264 267 263 261 262 260 260 262 261 264 262 263 268 265 262 260 261 262 260 260 260 261 263 263 260 259 261 262 266 266 265 264 264 262 261 260
276 273 273 269 269 269 274 269 269 268 268 268 271 269 266 263 260 263 267 268 262 260 259 259 259 260 264 261 259 263 260 258 260 268 265 265 262 260 259 261 263 262 258 259 261 264 262 263 261 260 259 258 257 257
Wind_Speed
23 20 18 16 14 12 10 9 7 7 6 6 7 8 10 11 12 5 1 2 3 3 3 6 7 5 4 5 6 5 6 5 4 4 4 4 3 5 3 7 8 8 7 5 3 3 9 7 4 8 7 3 7 6
22 20 18 16 14 12 10 9 8 7 6 6 7 8 10 11 12 5 3 2 2 5 3 1 3 2 4 1 7 4 7 5 5 5 0 3 1 0 2 3 4 2 9 8 11 9 7 6 8 5 5 6 4 4
18 19 18 15 14 12 10 9 7 7 6 6 7 8 10 12 13 7 2 3 4 4 4 4 3 5 5 5 0 6 3 6 4 4 4 3 4 4 4 6 1 3 6 4 5 6 7 5 5 5 6 8 7 6
20 15 16 15 13 12 10 9 7 6 6 6 7 9 11 11 13 8 4 3 5 4 6 4 3 4 4 6 5 3 6 7 7 4 4 4 3 5 5 5 5 6 2 2 4 3 4 5 7 9 8 8 6 4
22 21 16 13 12 11 10 8 7 7 7 6 7 9 10 11 12 4 3 3 3 5 5 3 2 3 3 5 3 5 7 6 4 3 3 4 3 3 2 3 3 4 6 4 7 4 4 5 6 6 7 8 6 3
21 21 18 17 14 11 8 7 6 7 7 7 7 8 9 11 10 2 3 4 5 3 6 2 3 2 3 3 1 4 2 3 4 5 4 3 4 5 3 4 5 6 7 5 4 3 7 10 8 7 6 7 6 6
19 18 18 17 14 12 10 7 6 7 7 6 6 7 8 10 4 3 4 2 5 2 5 3 2 5 4 3 4 4 5 2 3 3 2 3 3 4 3 5 7 8 5 7 12 11 5 5 4 5 7 7 6 5
16 16 15 14 12 12 11 8 5 6 6 6 6 5 5 4 5 2 1 3 4 4 4 4 2 4 3 2 3 4 2 3 3 2 1 2 3 2 4 8 9 11 8 9 7 5 6 7 6 5 4 6 7 7
14 14 13 13 13 12 11 8 6 8 8 9 7 3 3 4 2 2 9 9 1 4 4 3 5 5 3 2 2 4 2 2 1 1 1 2 2 6 6 6 7 6 9 11 9 9 8 7 7 5 8 8 7 5
13 13 13 13 11 10 9 7 7 9 11 10 3 3 1 2 10 6 3 4 5 3 3 3 3 2 4 1 1 3 2 2 1 4 2 1 5 5 7 5 3 6 12 13 11 8 8 6 8 7 7 6 5 2
12 11 12 12 12 12 10 12 12 13 7 3 3 2 2 6 2 3 1 2 1 2 2 3 4 5 2 4 3 1 3 1 3 4 4 3 4 6 7 2 5 8 9 6 9 12 11 9 7 7 5 3 1 3
11 11 11 12 14 15 10 5 5 4 2 4 4 3 3 4 3 3 3 1 2 3 3 1 2 2 2 1 4 1 4 2 5 4 2 3 4 5 9 8 8 8 13 14 13 12 11 11 7 6 3 4 4 4
10 11 11 10 12 14 13 13 15 12 4 3 5 4 3 3 2 4 5 2 1 2 1 1 2 2 2 3 3 3 6 5 2 3 4 3 1 5 7 10 12 12 13 13 12 9 8 6 3 1 4 5 5 5
9 10 10 11 10 10 11 11 8 3 5 4 2 3 1 2 2 1 1 1 1 0 1 2 2 2 1 2 2 4 1 2 3 3 4 2 5 6 7 8 11 8 8 9 6 5 3 2 4 5 5 4 4 6
9 6 7 9 9 9 9 11 11 4 3 3 2 2 2 2 0 0 0 0 3 0 2 2 2 1 1 2 1 3 1 2 1 2 2 2 2 6 7 7 7 7 5 4 3 1 3 5 5 6 5 5 5 5
7 2 4 5 5 5 5 6 5 3 4 3 3 3 1 1 1 1 1 1 1 1 1 2 1 1 2 1 1 1 2 1 3 2 3 2 3 3 5 5 5 5 4 2 2 4 5 4 4 6 4 4 6 7
7 3 6 4 5 5 8 4 3 5 3 3 2 2 1 2 3 1 0 1 1 2 2 1 3 1 0 1 1 2 2 2 3 0 1 3 4 3 4 4 2 1 3 4 3 3 4 4 4 3 7 7 7 7
4 2 6 5 0 2 3 3 3 2 3 2 2 2 3 2 2 2 2 2 2 1 1 2 3 2 0 0 1 1 2 1 2 3 3 3 3 3 2 1 2 2 3 5 4 4 4 4 6 6 7 8 6 7
5 5 4 6 6 2 2 4 2 3 2 2 1 3 3 2 2 1 1 3 1 1 2 2 1 1 1 1 2 1 1 2 2 2 1 2 3 4 3 1 3 3 4 4 4 3 4 6 5 5 6 5 5 6
12 12 8 5 7 3 3 2 2 3 2 3 2 3 3 2 1 1 1 2 1 1 2 1 3 2 2 1 1 2 2 2 3 2 2 2 2 1 2 3 3 4 4 5 5 4 3 4 3 3 3 2 3 4
5 3 9 5 3 3 2 2 1 1 2 3 2 3 2 1 1 1 1 1 2 1 1 3 2 3 4 3 3 2 2 2 1 3 3 1 3 0 3 4 4 2 2 3 3 5 4 5 6 4 3 4 5 5
2 5 2 3 2 4 1 3 3 1 3 2 1 3 3 2 2 1 1 1 2 3 2 2 1 2 2 1 1 2 1 3 2 2 3 2 2 2 3 3 1 3 4 4 4 6 5 5 3 2 3 7 8 5
5 3 2 1 2 3 3 2 2 3 4 3 1 2 2 1 2 1 2 3 4 2 2 3 3 3 4 2 2 4 3 1 1 2 4 3 2 3 4 5 4 3 5 5 3 4 5 5 4 3 3 7 7 5
2 1 1 2 3 3 1 2 1 2 3 3 3 3 3 3 2 1 2 2 1 4 6 7 3 2 3 5 8 7 8 6 6 6 7 7 6 6 7 6 6 6 6 7 7 8 9 8 6 3 7 8 7 4
2 3 1 3 1 3 4 3 4 3 3 3 3 2 1 2 2 2 3 1 3 4 6 7 7 7 6 5 5 6 9 8 7 6 5 5 6 6 5 4 4 6 8 8 9 9 8 8 8 8 9 9 6 5
4 3 3 5 3 3 4 4 5 5 4 3 2 3 2 2 2 4 2 2 2 4 4 5 4 4 7 7 5 6 6 5 5 2 3 4 5 5 6 7 7 6 9 8 9 10 11 10 10 11 10 10 8 9
4 4 2 1 2 2 1 1 3 3 3 4 4 4 3 3 5 2 3 4 3 3 3 5 6 6 5 5 3 5 5 5 4 5 5 4 7 7 7 7 8 7 10 10 10 11 12 12 11 11 12 6 7 9
1 1 3 2 0 0 3 2 2 2 2 1 5 3 6 4 2 3 3 3 4 3 4 6 5 3 3 2 4 4 4 4 5 6 4 4 6 5 7 5 5 12 9 8 9 10 11 11 12 11 12 10 5 6
1 1 3 2 2 1 1 2 2 1 2 3 4 1 3 4 3 3 3 3 3 4 4 3 4 3 4 4 4 4 3 3 7 8 6 4 6 5 7 7 8 8 9 10 13 14 16 14 13 12 11 4 6 7
2 2 1 1 2 2 3 4 2 3 3 2 4 4 4 3 3 3 3 3 3 3 2 3 2 4 2 3 3 5 2 3 3 4 1 3 6 5 7 9 9 9 9 9 11 13 15 11 11 8 5 5 6 6
2 2 2 2 3 2 2 2 1 1 2 2 3 5 4 4 2 3 4 4 3 4 5 4 4 3 4 4 2 2 4 3 3 3 1 3 2 3 4 7 7 8 7 9 10 10 12 8 7 6 6 8 9 7
3 4 1 1 2 1 1 1 1 1 1 2 2 3 4 3 3 2 3 3 4 4 3 3 3 3 3 2 3 3 6 3 3 3 4 2 2 3 4 5 6 7 5 7 10 10 9 6 7 8 6 8 9 9
2 1 1 1 1 0 1 2 2 0 1 2 3 3 3 3 3 2 0 2 4 3 2 1 2 3 2 3 3 4 4 3 7 9 7 5 4 6 4 5 6 5 5 7 9 7 8 8 7 8 8 8 7 7
Wind_Direction
142 141 142 139 140 144 143 132 124 110 89 67 44 29 18 14 9 25 224 22 96 98 341 17 0 52 92 99 132 202 55 333 48 84 127 216 158 237 126 173 173 163 150 194 188 208 275 221 125 153 202 140 144 120
139 139 138 139 140 143 139 132 125 110 88 66 46 29 18 11 5 357 66 323 33 87 190 45 119 62 46 125 134 146 172 158 168 98 148 125 201 52 142 230 172 174 183 180 180 211 223 209 191 162 140 132 138 125
136 135 136 134 136 138 138 133 129 117 95 71 50 30 18 9 7 20 72 359 44 75 356 41 32 7 26 11 227 121 312 170 129 136 132 148 193 143 169 239 230 268 173 191 108 244 234 203 105 118 115 121 135 138
73 110 120 123 129 132 130 131 130 120 98 69 51 36 20 7 3 7 77 325 80 84 107 288 304 46 308 354 44 74 135 63 97 79 114 146 180 179 208 221 160 209 353 235 254 277 86 49 115 123 114 120 141 162
68 66 80 103 115 118 117 121 126 120 103 81 54 34 19 5 352 350 70 37 54 122 168 264 356 8 8 347 80 77 99 103 98 84 107 210 226 83 293 69 243 208 197 168 235 229 159 133 127 128 136 146 139 190
69 68 67 72 80 101 115 119 121 122 122 100 68 40 18 357 343 39 56 4 7 5 92 69 270 9 14 325 82 119 128 108 117 134 202 251 247 118 151 210 246 225 248 227 206 121 113 139 137 141 141 164 147 103
69 70 66 63 64 73 90 118 122 127 127 110 72 45 15 353 31 76 160 245 337 19 84 40 307 334 331 326 31 21 28 42 105 157 175 174 283 118 164 209 231 237 248 123 129 112 91 158 167 157 149 133 125 98
64 64 64 63 59 62 69 78 128 134 131 126 94 65 24 47 97 55 352 308 343 81 76 121 226 7 335 9 41 348 26 357 14 123 33 174 342 77 255 235 227 227 227 131 130 81 132 135 146 160 135 97 82 71
62 58 57 58 68 63 44 52 94 141 136 120 102 45 26 31 34 346 331 325 334 116 136 106 150 214 48 56 67 14 52 38 308 113 228 83 193 222 225 231 248 233 164 147 126 124 125 149 170 119 95 75 78 67
57 55 51 55 62 60 50 70 96 124 128 133 63 71 10 303 317 325 12 30 11 328 73 158 156 181 101 65 6 88 13 212 210 244 94 193 253 305 271 237 0 130 135 139 135 152 155 124 94 83 81 81 91 111
55 51 48 52 48 43 64 90 92 102 97 58 81 105 264 301 34 24 154 149 206 314 213 201 179 142 240 127 168 171 178 175 230 250 174 239 257 246 244 198 106 109 120 124 96 91 90 95 88 80 72 90 209 254
45 41 43 61 58 60 66 60 49 58 45 88 103 88 44 33 49 144 186 351 169 229 11 120 28 85 12 81 106 215 170 133 237 133 160 251 269 50 76 79 63 80 91 88 84 82 75 72 73 69 24 307 282 264
41 43 42 72 70 56 56 67 81 113 120 53 48 56 31 3 127 195 189 243 74 15 336 357 54 100 44 52 86 152 183 211 91 168 225 232 92 95 93 82 68 70 73 72 70 66 67 62 52 191 262 271 265 278
48 60 55 50 74 63 47 42 47 118 70 69 86 93 26 120 60 44 10 17 294 323 46 59 67 111 77 99 139 177 192 107 205 190 220 357 37 48 65 109 104 86 82 83 85 82 66 237 250 254 232 242 231 259
30 68 77 54 57 61 54 38 27 39 85 82 81 85 88 131 71 13 270 37 329 21 58 42 63 56 66 107 353 98 135 217 280 84 46 326 32 87 76 87 101 113 108 103 98 74 253 257 246 267 262 254 251 251
358 350 66 75 65 48 40 51 29 28 35 84 72 109 109 119 86 46 54 75 107 274 328 73 89 92 51 54 216 314 169 83 64 147 200 160 82 71 98 120 127 122 135 150 248 247 252 257 264 277 280 272 264 248
326 70 140 107 93 61 29 66 33 44 83 57 73 28 93 63 107 92 170 276 285 78 65 42 50 45 332 63 52 21 49 138 207 291 108 123 121 92 67 48 34 247 255 266 266 288 291 282 288 299 295 285 268 259
34 142 173 175 311 4 25 32 89 77 71 95 119 103 65 21 78 58 17 346 39 56 57 158 135 93 111 60 181 225 166 239 105 141 140 124 105 92 95 286 324 352 328 311 290 301 290 292 292 274 265 267 275 272
37 50 64 66 11 58 47 352 27 94 51 86 56 56 67 93 57 34 353 328 345 206 84 35 92 186 196 184 175 240 118 134 166 179 180 204 225 227 230 255 277 288 295 288 294 277 266 263 252 264 270 272 265 269
74 48 39 29 360 75 57 317 24 77 133 165 79 68 71 65 70 327 333 342 5 55 39 120 224 220 147 244 170 146 183 148 108 48 321 330 359 83 255 266 254 272 269 276 276 261 288 291 277 268 275 293 321 299
47 24 25 36 344 349 142 195 35 125 123 85 124 110 100 220 151 157 100 324 38 216 256 221 207 216 148 147 123 98 56 70 105 153 200 301 294 305 294 293 290 291 261 268 267 281 264 256 272 276 279 285 272 235
68 59 63 20 59 344 28 313 146 214 65 140 125 113 121 150 141 140 29 338 235 249 216 190 253 53 75 52 90 141 147 80 33 339 309 276 310 314 306 260 337 283 279 267 263 268 270 263 276 288 306 301 294 264
83 50 57 92 151 193 248 342 155 144 137 175 56 92 114 138 126 25 220 234 233 243 81 59 72 76 95 108 91 40 43 87 329 346 4 346 331 334 343 339 343 331 320 313 298 306 302 275 268 268 269 290 278 265
61 84 176 235 212 129 284 224 201 77 134 164 164 191 138 170 141 184 245 223 12 17 29 1 7 29 28 51 63 45 22 21 31 25 18 14 9 2 357 348 351 340 355 338 343 337 325 308 295 307 302 298 290 265
191 180 241 220 232 149 147 185 180 127 155 206 106 110 189 111 159 195 217 90 58 34 19 11 15 40 71 74 68 59 42 31 20 357 349 22 341 332 327 319 317 57 7 351 343 334 327 326 321 312 301 287 266 277
211 171 221 185 190 210 167 162 185 166 132 140 123 115 155 144 133 233 94 82 55 47 21 21 7 36 49 47 41 26 19 25 18 347 316 343 346 25 20 10 359 354 359 342 342 336 332 327 322 320 323 324 307 294
203 200 203 233 283 75 83 24 21 97 134 156 151 156 130 160 222 104 112 21 56 26 39 48 31 30 22 33 19 56 40 17 356 325 307 82 67 47 30 6 355 352 336 338 339 330 325 322 323 320 311 316 320 312
43 235 177 199 178 19 135 124 146 159 186 153 96 169 172 184 107 53 57 41 26 5 78 66 44 23 34 342 55 61 35 4 347 338 3 61 69 51 18 351 352 348 327 328 328 323 323 321 311 315 315 308 340 34
49 55 80 20 323 23 99 147 196 34 345 112 146 139 91 57 14 45 54 31 15 48 52 53 27 15 19 18 50 58 54 40 39 33 20 317 340 340 354 347 343 339 330 325 326 325 320 318 322 312 306 33 64 56
32 324 66 64 78 75 50 342 51 0 2 54 111 101 96 88 38 5 37 33 39 33 39 57 65 57 30 44 6 8 53 64 84 105 8 322 325 329 340 338 337 331 322 331 327 320 320 323 325 336 29 33 48 64
308 282 65 56 70 57 46 356 262 47 28 50 49 69 102 123 94 18 23 348 74 47 43 26 31 34 38 1 352 28 329 331 38 70 343 276 314 316 317 331 320 317 325 330 322 318 315 329 339 9 39 44 46 57
14 17 6 101 104 130 74 10 333 263 198 187 116 109 135 123 86 40 327 7 48 57 36 49 38 336 318 305 6 349 30 13 356 322 319 349 333 314 297 303 310 310 309 324 319 317 318 6 15 21 33 43 48 45
134 123 123 106 337 42 8 33 288 273 55 87 62 82 76 79 116 159 300 75 127 131 96 22 313 307 33 5 34 37 1 326 330 343 351 25 341 319 311 308 312 338 345 325 322 333 7 18 39 31 32 36 40 41